EDT,Max TemperatureF,Mean TemperatureF,Min TemperatureF,Max Dew PointF,MeanDew PointF,Min DewpointF,Max Humidity, Mean Humidity, Min Humidity, Max Sea Level PressureIn, Mean Sea Level PressureIn, Min Sea Level PressureIn, Max VisibilityMiles, Mean VisibilityMiles, Min VisibilityMiles, Max Wind SpeedMPH, Mean Wind SpeedMPH, Max Gust SpeedMPH,PrecipitationIn, CloudCover, Events, WindDirDegrees
2011-9-1,93,81,69,70,66,63,84,64,44,30.14,30.09,30.02,10,10,10,8,1,13,0.00,1,,250
2011-9-2,94,83,71,70,68,66,90,66,41,30.12,30.03,29.97,10,10,8,7,1,10,0.00,1,,262
2011-9-3,96,84,72,72,68,62,87,64,41,30.03,29.95,29.86,10,9,5,9,2,13,0.00,0,,142
2011-9-4,89,78,66,68,65,64,93,72,50,29.95,29.89,29.80,10,7,1,12,2,17,0.35,4,Rain-Thunderstorm,304
2011-9-5,66,63,59,65,62,57,100,95,90,29.93,29.85,29.80,10,4,0,7,1,20,0.99,8,Fog-Rain,-1
2011-9-6,61,59,56,59,57,54,93,90,87,29.85,29.81,29.76,10,5,1,9,2,24,0.55,8,Rain,-1
2011-9-7,63,60,57,61,58,55,97,94,90,29.99,29.90,29.83,10,5,0,8,2,14,0.21,8,Fog-Rain,272
2011-9-8,66,62,57,59,57,55,100,89,78,29.99,29.96,29.93,10,6,0,9,1,15,0.03,8,Fog-Rain,273
2011-9-9,70,64,58,59,57,55,100,87,73,30.02,29.97,29.92,10,5,0,5,0,7,0.00,8,Fog,261
2011-9-10,77,67,57,61,58,55,93,75,57,30.06,30.03,29.99,10,9,2,8,1,12,0.00,5,,183
2011-9-11,78,68,57,61,57,54,93,75,57,30.10,30.08,30.04,10,9,2,10,1,20,0.00,3,Thunderstorm,176
2011-9-12,80,69,58,61,58,55,93,71,48,30.17,30.09,30.03,10,9,5,7,1,9,0.00,1,,276
2011-9-13,82,71,59,63,59,55,90,69,47,30.08,30.03,29.97,10,9,2,9,1,15,0.00,0,,200
2011-9-14,85,74,62,64,61,59,90,67,44,30.03,29.97,29.90,10,10,9,9,1,16,0.00,0,,265
2011-9-15,67,60,52,63,53,46,93,85,77,30.26,30.09,29.93,10,7,2,8,2,20,0.20,7,Rain,-1
2011-9-16,58,52,46,47,43,40,86,74,61,30.30,30.26,30.23,10,10,10,8,2,16,0.00,3,,50
2011-9-17,74,63,51,56,52,46,83,66,49,30.28,30.24,30.19,10,10,10,6,1,9,0.00,4,,150
2011-9-18,74,65,56,60,57,54,93,77,61,30.27,30.21,30.15,10,10,6,6,1,8,0.00,3,,120
2011-9-19,70,66,61,63,61,57,93,83,73,30.14,30.08,30.04,10,6,1,7,2,10,0.36,7,Rain,131
2011-9-20,75,68,61,64,61,60,100,84,68,30.15,30.09,30.05,10,4,0,6,1,9,0.00,7,Fog,112
2011-9-21,71,67,62,67,64,60,93,90,87,30.12,30.08,30.03,10,5,0,5,0,8,0.23,6,Fog-Rain-Thunderstorm,133
2011-9-22,80,71,62,65,62,60,100,79,58,30.16,30.10,30.03,10,5,0,6,0,9,T,4,Fog,260
2011-9-23,67,61,54,63,56,52,93,90,86,30.07,30.03,29.94,10,6,0,9,3,15,0.03,8,Fog-Rain,303
2011-9-24,68,59,50,55,51,48,96,80,63,30.10,30.05,30.00,10,5,0,7,1,10,0.00,6,Fog,113
2011-9-25,78,67,56,60,56,53,93,72,50,30.03,29.94,29.83,10,10,9,8,2,15,0.00,0,,125
2011-9-26,78,65,51,64,55,50,93,77,61,29.94,29.87,29.74,10,6,0,18,4,26,0.25,5,Fog-Rain,226
2011-9-27,72,62,51,56,51,48,100,75,49,29.95,29.92,29.86,10,5,0,9,1,14,0.00,4,Fog,170
2011-9-28,72,64,56,57,55,53,86,72,57,29.91,29.86,29.81,10,10,10,7,1,9,T,6,,270
2011-9-29,74,65,55,57,54,50,100,72,44,29.90,29.85,29.78,10,6,0,15,3,22,T,3,Fog-Rain,305
2011-9-30,61,53,45,50,45,39,77,69,60,29.97,29.89,29.80,10,10,9,14,5,21,T,6,Rain,288